星链-2722 (STARLINK-2722 )

导读

STARLINK-2722是美国太空探索技术公司SpaceX于2021年5月9日发射的Starlink卫星,属于星链互联网卫星星座的组成部分。星链计划旨在通过部署近地轨道卫星群,为全球提供高速低延迟的宽带互联网服务,该卫星承载着完成全球网络覆盖的相应组网功能。

Basic Information
目录编号:
48472
目录名称:
STARLINK-2722
国际标识:
2021-040AW
轨道中心:
EARTH
卫星名称:
星链-2722
卫星全名:
星链-2722 (STARLINK-2722 )
卫星状态:
在轨 (已飞行1866 天)
发射日期:
2021-05-09 UTC
国别 :
美国 (US)
星等 :
--
Orbit Information
数据来源 国际轨道数据 AOE轨道数据
星历时间 2026-06-18T12:43:50+0800
11小时前
查看轨道信息
2026-06-14T03:00:00+0800
4天前
查看轨道信息
半长轴 6906.854km 6907.525km
偏心率 0.0002693 0.0003037
轨道倾角 53.059° 53.059°
近地点辐角 61.969° 43.026°
升交点赤经 97.616° 117.571°
平近点角 298.157° 78.320°
近地点 526.856km 527.29km
远地点 530.578km 531.486km
周期 95.209分钟 95.223分钟
每日圈数 15.124547 15.122343
Detailed Information
固有亮度:
5
最大亮度:
2.5
卫星平台:
Starlink V1.0
覆盖范围:
全球
运营商:
太空探索技术公司
运营商所在国:
美国
制造商(研发单位):
太空探索技术公司
制造商所在国:
美国
使用方式:
暂无
Satellite Introduction
星链(Starlink)计划是由太空探索技术公司(SpaceX)提出的一个巨型低轨卫星互联网星座项目,计划在2019年至2024年间在太空搭建由约1.2万颗卫星组成的“星链”网络,其中1584颗将部署在地球上空550千米处的近地轨道,并从2020年开始工作。该卫星仍在工作。
2D Orbit Map
3D Orbit Map
Orbit Altitude Analysis Chart
Orbit Inclination Analysis Chart
Orbit Comprehensive Analysis Chart
View Comprehensive Chart